New Yoshino — JG5527 — position and weather

sailwx.info

Track history (hours):
 
Tides and Currents Weather Stations Pressure Air Temp Water Temp Dewpoint Dewpoint Depression Visibility Wind Speed Wind Dir Waves Ship Positions

New Yoshino

Last reported at 2014-Jul-30 17:27 UTC. Time now 2014-Jul-31 13:40 UTC.
Position N 36°27' E 141°02'.

Length 102 m; draft 6 m.

Type: Tanker. MMSI: 431300724.

Date/timePositionNaut miles runAvg speedWind from/ knotsBaromVisibWave heightAir tempDewpointWater temp
2014-Jul-30 17:27N 36°27' E 141°02'2513.0
2014-Jul-30 15:33N 36°02' E 141°00'2913.0
2014-Jul-30 13:18N 35°34' E 140°52'1013.7
2014-Jul-30 12:33N 35°26' E 140°44'3215.5
2014-Jul-30 10:28N 35°02' E 140°18'1615.8
2014-Jul-30 09:29N 34°53' E 140°02'1312.6
2014-Jul-30 08:27N 34°52' E 139°46'1011.3
2014-Jul-30 07:33N 35°01' E 139°43'1312.9
2014-Jul-30 06:33N 35°14' E 139°46'1111.1
2014-Jul-30 05:33N 35°25' E 139°43'7 3.3
2014-Jul-30 03:30N 35°31' E 139°46'0 0.0
2014-Jul-30 02:30N 35°31' E 139°46'0 0.0
2014-Jul-30 01:33N 35°31' E 139°46'0 0.0
2014-Jul-29 23:33N 35°31' E 139°46'0 0.0
2014-Jul-29 22:33N 35°31' E 139°46'4 4.3
2014-Jul-29 21:33N 35°28' E 139°42'5 5.2
2014-Jul-29 20:33N 35°24' E 139°46'1111.1
2014-Jul-29 19:33N 35°13' E 139°47'1211.9
2014-Jul-29 18:33N 35°03' E 139°39'1414.2
2014-Jul-29 17:32N 34°54' E 139°26'  
2014-Jul-27 04:23N 34°00' E 135°02'810.2
2014-Jul-27 03:33N 34°07' E 135°07'0 0.1
2014-Jul-27 00:18N 34°07' E 135°07'2 2.0
2014-Jul-26 23:22N 34°09' E 135°08'0 0.0
2014-Jul-26 22:31N 34°09' E 135°08'0 0.0
2014-Jul-26 21:28N 34°09' E 135°08'0 0.0
2014-Jul-26 20:28N 34°09' E 135°08'0 0.0
2014-Jul-26 19:28N 34°09' E 135°08'0 0.0
2014-Jul-26 18:28N 34°09' E 135°08'0 0.0
2014-Jul-26 17:31N 34°09' E 135°08'0 0.1
2014-Jul-26 16:28N 34°09' E 135°08'0 0.0
2014-Jul-26 15:31N 34°09' E 135°08'0 0.0
2014-Jul-26 14:28N 34°09' E 135°08'0 0.1
2014-Jul-26 13:31N 34°09' E 135°08'5 5.3
2014-Jul-26 12:33N 34°13' E 135°04'1010.1
2014-Jul-26 11:33N 34°22' E 135°00'1211.8
2014-Jul-26 10:33N 34°34' E 135°03'8 7.7
2014-Jul-26 09:33N 34°35' E 134°53'1 0.1
2014-Jul-25 14:33N 34°36' E 134°55'9 9.2
2014-Jul-25 13:33N 34°32' E 135°05'1413.6
2014-Jul-25 12:33N 34°19' E 134°60'1211.9
2014-Jul-25 11:33N 34°08' E 135°06'1 0.1
2014-Jul-25 04:32N 34°07' E 135°07'12 9.9
2014-Jul-25 03:23N 33°57' E 135°02'219 6.8
2014-Jul-23 19:12N 34°50' E 139°19'710.3
2014-Jul-23 18:33N 34°54' E 139°26'1110.9
2014-Jul-23 17:33N 35°01' E 139°36'1211.9
2014-Jul-23 16:33N 35°10' E 139°45'1111.2
2014-Jul-23 15:33N 35°21' E 139°42'10 9.8
2014-Jul-23 14:33N 35°31' E 139°46'1 0.7
2014-Jul-23 13:33N 35°31' E 139°46'0 0.0
2014-Jul-23 12:34N 35°31' E 139°46'0 0.0
2014-Jul-23 11:33N 35°31' E 139°46'0 0.0
2014-Jul-23 10:33N 35°31' E 139°46'0 0.0
2014-Jul-23 09:34N 35°31' E 139°46'0 0.0
2014-Jul-23 08:33N 35°31' E 139°46'0 0.0
2014-Jul-23 07:33N 35°31' E 139°46'1 0.8
2014-Jul-23 06:34N 35°31' E 139°46'6 6.1
2014-Jul-23 05:33N 35°24' E 139°45'0 0.1
2014-Jul-23 04:33N 35°24' E 139°45'0 0.0
2014-Jul-23 03:33N 35°24' E 139°45'0 0.0
2014-Jul-23 02:33N 35°24' E 139°45'0 0.0
2014-Jul-23 01:33N 35°24' E 139°45'0 0.0
2014-Jul-23 00:30N 35°24' E 139°45'0 0.0
2014-Jul-22 23:33N 35°24' E 139°45'0 0.1
2014-Jul-22 22:33N 35°24' E 139°45'0 0.0
2014-Jul-22 21:33N 35°24' E 139°45'0 0.0
2014-Jul-22 20:30N 35°24' E 139°45'0 0.0
2014-Jul-22 19:33N 35°24' E 139°45'0 0.1
2014-Jul-22 18:30N 35°24' E 139°45'0 0.0
2014-Jul-22 17:33N 35°24' E 139°45'0 0.1
2014-Jul-22 16:33N 35°24' E 139°45'0 0.1
2014-Jul-22 15:33N 35°24' E 139°45'7 7.3
2014-Jul-22 14:33N 35°32' E 139°46'0 0.1
2014-Jul-22 13:27N 35°32' E 139°46'0 0.0
2014-Jul-22 12:33N 35°32' E 139°46'0 0.0
2014-Jul-22 11:31N 35°32' E 139°46'0 0.0
2014-Jul-22 10:34N 35°32' E 139°46'0 0.0
2014-Jul-22 09:22N 35°32' E 139°46'0 0.1
2014-Jul-22 08:33N 35°32' E 139°46'5 4.6
2014-Jul-22 07:33N 35°28' E 139°42'4 4.3
2014-Jul-22 06:33N 35°24' E 139°45'0 0.0
2014-Jul-22 05:33N 35°24' E 139°45'0 0.0
2014-Jul-22 04:33N 35°24' E 139°45'0 0.0
2014-Jul-22 03:33N 35°24' E 139°45'0 0.0
2014-Jul-22 02:33N 35°24' E 139°45'0 0.0
2014-Jul-22 01:33N 35°24' E 139°45'0 0.0
2014-Jul-22 00:30N 35°24' E 139°45'0 0.0
2014-Jul-21 23:33N 35°24' E 139°45'0 0.0
2014-Jul-21 22:33N 35°24' E 139°45'0 0.0
2014-Jul-21 21:33N 35°24' E 139°45'0 0.1
2014-Jul-21 20:33N 35°24' E 139°45'0 0.0
2014-Jul-21 20:12N 35°24' E 139°45'0 0.0
2014-Jul-21 19:33N 35°24' E 139°45'0 0.0
2014-Jul-21 18:33N 35°24' E 139°45'0 0.0
2014-Jul-21 17:33N 35°24' E 139°45'0 0.0
2014-Jul-21 16:33N 35°24' E 139°45'0 0.0
2014-Jul-21 15:33N 35°24' E 139°45'0 0.0
2014-Jul-21 14:30N 35°24' E 139°45'0 0.0
2014-Jul-21 13:30N 35°24' E 139°45'0 0.0
2014-Jul-21 12:30N 35°24' E 139°45'0 0.0
2014-Jul-21 11:30N 35°24' E 139°45'0 0.0
2014-Jul-21 10:33N 35°24' E 139°45'0 0.0
2014-Jul-21 09:33N 35°24' E 139°45'0 0.1
2014-Jul-21 08:33N 35°24' E 139°45'1 0.8
2014-Jul-21 07:34N 35°23' E 139°45'1211.5
2014-Jul-21 06:34N 35°12' E 139°47'1312.6
2014-Jul-21 05:34N 35°02' E 139°38'1513.8
2014-Jul-21 04:30N 34°53' E 139°24'  
Track history (hours):
 
Tides and Currents Weather Stations Pressure Air Temp Water Temp Dewpoint Dewpoint Depression Visibility Wind Speed Wind Dir Waves Ship Positions

New Yoshino

Last reported at 2014-Jul-30 17:27 UTC. Time now 2014-Jul-31 13:40 UTC.
Position N 36°27' E 141°02'.

Length 102 m; draft 6 m.

Type: Tanker. MMSI: 431300724.

Date/timePositionNaut miles runAvg speedWind from/ knotsBaromVisibWave heightAir tempDewpointWater temp
2014-Jul-30 17:27N 36°27' E 141°02'2513.0
2014-Jul-30 15:33N 36°02' E 141°00'2913.0
2014-Jul-30 13:18N 35°34' E 140°52'1013.7
2014-Jul-30 12:33N 35°26' E 140°44'3215.5
2014-Jul-30 10:28N 35°02' E 140°18'1615.8
2014-Jul-30 09:29N 34°53' E 140°02'1312.6
2014-Jul-30 08:27N 34°52' E 139°46'1011.3
2014-Jul-30 07:33N 35°01' E 139°43'1312.9
2014-Jul-30 06:33N 35°14' E 139°46'1111.1
2014-Jul-30 05:33N 35°25' E 139°43'7 3.3
2014-Jul-30 03:30N 35°31' E 139°46'0 0.0
2014-Jul-30 02:30N 35°31' E 139°46'0 0.0
2014-Jul-30 01:33N 35°31' E 139°46'0 0.0
2014-Jul-29 23:33N 35°31' E 139°46'0 0.0
2014-Jul-29 22:33N 35°31' E 139°46'4 4.3
2014-Jul-29 21:33N 35°28' E 139°42'5 5.2
2014-Jul-29 20:33N 35°24' E 139°46'1111.1
2014-Jul-29 19:33N 35°13' E 139°47'1211.9
2014-Jul-29 18:33N 35°03' E 139°39'1414.2
2014-Jul-29 17:32N 34°54' E 139°26'  
2014-Jul-27 04:23N 34°00' E 135°02'810.2
2014-Jul-27 03:33N 34°07' E 135°07'0 0.1
2014-Jul-27 00:18N 34°07' E 135°07'2 2.0
2014-Jul-26 23:22N 34°09' E 135°08'0 0.0
2014-Jul-26 22:31N 34°09' E 135°08'0 0.0
2014-Jul-26 21:28N 34°09' E 135°08'0 0.0
2014-Jul-26 20:28N 34°09' E 135°08'0 0.0
2014-Jul-26 19:28N 34°09' E 135°08'0 0.0
2014-Jul-26 18:28N 34°09' E 135°08'0 0.0
2014-Jul-26 17:31N 34°09' E 135°08'0 0.1
2014-Jul-26 16:28N 34°09' E 135°08'0 0.0
2014-Jul-26 15:31N 34°09' E 135°08'0 0.0
2014-Jul-26 14:28N 34°09' E 135°08'0 0.1
2014-Jul-26 13:31N 34°09' E 135°08'5 5.3
2014-Jul-26 12:33N 34°13' E 135°04'1010.1
2014-Jul-26 11:33N 34°22' E 135°00'1211.8
2014-Jul-26 10:33N 34°34' E 135°03'8 7.7
2014-Jul-26 09:33N 34°35' E 134°53'1 0.1
2014-Jul-25 14:33N 34°36' E 134°55'9 9.2
2014-Jul-25 13:33N 34°32' E 135°05'1413.6
2014-Jul-25 12:33N 34°19' E 134°60'1211.9
2014-Jul-25 11:33N 34°08' E 135°06'1 0.1
2014-Jul-25 04:32N 34°07' E 135°07'12 9.9
2014-Jul-25 03:23N 33°57' E 135°02'219 6.8
2014-Jul-23 19:12N 34°50' E 139°19'710.3
2014-Jul-23 18:33N 34°54' E 139°26'1110.9
2014-Jul-23 17:33N 35°01' E 139°36'1211.9
2014-Jul-23 16:33N 35°10' E 139°45'1111.2
2014-Jul-23 15:33N 35°21' E 139°42'10 9.8
2014-Jul-23 14:33N 35°31' E 139°46'1 0.7
2014-Jul-23 13:33N 35°31' E 139°46'0 0.0
2014-Jul-23 12:34N 35°31' E 139°46'0 0.0
2014-Jul-23 11:33N 35°31' E 139°46'0 0.0
2014-Jul-23 10:33N 35°31' E 139°46'0 0.0
2014-Jul-23 09:34N 35°31' E 139°46'0 0.0
2014-Jul-23 08:33N 35°31' E 139°46'0 0.0
2014-Jul-23 07:33N 35°31' E 139°46'1 0.8
2014-Jul-23 06:34N 35°31' E 139°46'6 6.1
2014-Jul-23 05:33N 35°24' E 139°45'0 0.1
2014-Jul-23 04:33N 35°24' E 139°45'0 0.0
2014-Jul-23 03:33N 35°24' E 139°45'0 0.0
2014-Jul-23 02:33N 35°24' E 139°45'0 0.0
2014-Jul-23 01:33N 35°24' E 139°45'0 0.0
2014-Jul-23 00:30N 35°24' E 139°45'0 0.0
2014-Jul-22 23:33N 35°24' E 139°45'0 0.1
2014-Jul-22 22:33N 35°24' E 139°45'0 0.0
2014-Jul-22 21:33N 35°24' E 139°45'0 0.0
2014-Jul-22 20:30N 35°24' E 139°45'0 0.0
2014-Jul-22 19:33N 35°24' E 139°45'0 0.1
2014-Jul-22 18:30N 35°24' E 139°45'0 0.0
2014-Jul-22 17:33N 35°24' E 139°45'0 0.1
2014-Jul-22 16:33N 35°24' E 139°45'0 0.1
2014-Jul-22 15:33N 35°24' E 139°45'7 7.3
2014-Jul-22 14:33N 35°32' E 139°46'0 0.1
2014-Jul-22 13:27N 35°32' E 139°46'0 0.0
2014-Jul-22 12:33N 35°32' E 139°46'0 0.0
2014-Jul-22 11:31N 35°32' E 139°46'0 0.0
2014-Jul-22 10:34N 35°32' E 139°46'0 0.0
2014-Jul-22 09:22N 35°32' E 139°46'0 0.1
2014-Jul-22 08:33N 35°32' E 139°46'5 4.6
2014-Jul-22 07:33N 35°28' E 139°42'4 4.3
2014-Jul-22 06:33N 35°24' E 139°45'0 0.0
2014-Jul-22 05:33N 35°24' E 139°45'0 0.0
2014-Jul-22 04:33N 35°24' E 139°45'0 0.0
2014-Jul-22 03:33N 35°24' E 139°45'0 0.0
2014-Jul-22 02:33N 35°24' E 139°45'0 0.0
2014-Jul-22 01:33N 35°24' E 139°45'0 0.0
2014-Jul-22 00:30N 35°24' E 139°45'0 0.0
2014-Jul-21 23:33N 35°24' E 139°45'0 0.0
2014-Jul-21 22:33N 35°24' E 139°45'0 0.0
2014-Jul-21 21:33N 35°24' E 139°45'0 0.1
2014-Jul-21 20:33N 35°24' E 139°45'0 0.0
2014-Jul-21 20:12N 35°24' E 139°45'0 0.0
2014-Jul-21 19:33N 35°24' E 139°45'0 0.0
2014-Jul-21 18:33N 35°24' E 139°45'0 0.0
2014-Jul-21 17:33N 35°24' E 139°45'0 0.0
2014-Jul-21 16:33N 35°24' E 139°45'0 0.0
2014-Jul-21 15:33N 35°24' E 139°45'0 0.0
2014-Jul-21 14:30N 35°24' E 139°45'0 0.0
2014-Jul-21 13:30N 35°24' E 139°45'0 0.0
2014-Jul-21 12:30N 35°24' E 139°45'0 0.0
2014-Jul-21 11:30N 35°24' E 139°45'0 0.0
2014-Jul-21 10:33N 35°24' E 139°45'0 0.0
2014-Jul-21 09:33N 35°24' E 139°45'0 0.1
2014-Jul-21 08:33N 35°24' E 139°45'1 0.8
2014-Jul-21 07:34N 35°23' E 139°45'1211.5
2014-Jul-21 06:34N 35°12' E 139°47'1312.6
2014-Jul-21 05:34N 35°02' E 139°38'1513.8
2014-Jul-21 04:30N 34°53' E 139°24'  

Dump ship's entire track history